Location: Geremba
(10.4250°N, 67.2394°W)
Time: 00:11:12
(UTC+00:00)

ARIANE 5 R/B - Pass Details

Date: 23 May 2024
Orbit: 746 x 794 km, 98.8° (Epoch: 15 June)

Event Time Altitude Azimuth Distance (km) Brightness Sun altitude
Rises 09:14:55 0° 14° (NNE) 3,197 6.3 -12.5°
Reaches altitude 10° 09:17:13 10° 15° (NNE) 2,267 5.5 -12.0°
Maximum altitude 09:22:12 83° 102° (ESE) 756 2.5 -10.8°
Drops below altitude 10° 09:27:09 10° 190° (S) 2,256 4.6 -9.7°
Sets 09:29:26 0° 191° (S) 3,180 5.4 -9.2°
